Regional Weather Roundup
Issued by NWS

Home | Current Version | Previous Version | Text Only | Print | Product List | Glossary On
Versions: 1 2 3 4 5 6 7 8 9 10 11 12 13 14 15 16 17 18 19 20 21 22 23 24 25 26 27 28 29 30 31 32 33 34 35 36 37 38 39 40 41 42 43 44 45 46 47 48 49 50
000
ASUS43 KMKX 062121
RWRWI

WISCONSIN REGIONAL WEATHER ROUNDUP
NATIONAL WEATHER SERVICE MILWAUKEE/SULLIVAN WI
300 PM CST SAT FEB 06 2016

NOTE: "FAIR" INDICATES FEW OR NO CLOUDS BELOW 12,000 FEET WITH NO
SIGNIFICANT WEATHER AND/OR OBSTRUCTIONS TO VISIBILITY.

WIZ001-002-006>008-014>016-023>028-062200-
NORTHWEST WISCONSIN

CITY           SKY/WX    TMP DP  RH WIND       PRES   REMARKS
SUPERIOR ARPT  CLOUDY    37  26  63 SW14      29.85F WCI  28
ASHLAND        CLOUDY    36  23  59 S10G21    29.88F WCI  28
HAYWARD        PTSUNNY   33  22  63 S15       29.91F WCI  23
SIREN          CLOUDY    35  25  67 S13       29.91F WCI  26
CUMBERLAND     CLOUDY    32  23  69 S10       29.94F WCI  24
RICE LAKE      CLOUDY    32  24  72 S13       29.97F WCI  22
CHETEK         CLOUDY    31  24  72 S9        29.97F WCI  23
LADYSMITH      SUNNY     34  23  65 S10       29.98F WCI  26
EAU CLAIRE     MOSUNNY   34  22  61 SW16      30.00F WCI  24
MENOMONIE      MOSUNNY   37  25  63 S10       30.00F WCI  29
NEW RICHMOND   CLOUDY    33  25  73 S14       29.96F WCI  23
OSCEOLA        CLOUDY    34  27  76 S12G20    29.97F WCI  25
$$

WIZ003>005-009-010-017-018-062200-
NORTH CENTRAL WISCONSIN

CITY           SKY/WX    TMP DP  RH WIND       PRES   REMARKS
MANITOWISH WTR CLOUDY    31  20  65 S10       29.91F WCI  22
ARBOR VITAE    CLOUDY    32  22  66 S9        29.93F WCI  24
WOODRUFF       CLOUDY    32  22  66 S9        29.93F WCI  24
RHINELANDER    CLOUDY    30  20  66 SW9       29.96F WCI  22
EAGLE RIVER    CLOUDY    29  18  64 S7        29.94S WCI  22
LAND O LAKES   CLOUDY    30  19  63 S6        29.93F WCI  24
PHILLIPS       CLOUDY    32  22  65 S13G18    29.93F WCI  23
TOMAHAWK       CLOUDY    33  20  60 S6        29.97F WCI  27
MEDFORD        SUNNY     30  22  71 S8        29.99S WCI  23
MERRILL        PTSUNNY   32  22  67 SW8       30.00F WCI  25
$$

WIZ029-030-035-036-043>047-062200-
CENTRAL WISCONSIN

CITY           SKY/WX    TMP DP  RH WIND       PRES   REMARKS
WAUSAU         CLOUDY    33  22  63 SW13      30.00F WCI  24
MOSINEE        MOSUNNY   30  25  80 S10       30.03F WCI  21
MARSHFIELD     SUNNY     34  21  59 SW9       30.01F WCI  27
STEVENS POINT  CLOUDY    32  23  69 SW8       30.05S WCI  24
WAUPACA        CLOUDY    35  25  67 SW8       30.07F WCI  28
WAUTOMA        PTSUNNY   34  25  70 SW7       30.09F WCI  28
WISC RAPIDS    SUNNY     33  22  63 SW12      30.06F WCI  24
CAMP DOUGLAS   PTSUNNY   36  27  69 SW7       30.07F WCI  30
$$

WIZ011>013-019>022-031-037>040-048>050-062200-
NORTHEAST WISCONSIN

CITY           SKY/WX    TMP DP  RH WIND       PRES   REMARKS
ANTIGO         CLOUDY    28  22  78 SW9       30.00S WCI  19
SHAWANO        CLOUDY    33  25  72 SW7       30.06S WCI  26
OCONTO         CLOUDY    31  24  77 SW8       30.06S WCI  23
STURGEON BAY   CLOUDY    28  21  74 SW12      30.08S WCI  18
GREEN BAY      CLOUDY    30  24  78 SW9       30.07F WCI  22
MANITOWOC      CLOUDY    33  24  69 SW9       30.10F WCI  25
APPLETON       CLOUDY    30  23  74 SW12      30.07F WCI  21
CLINTONVILLE   CLOUDY    32  23  69 SW9       30.06F WCI  24
OSHKOSH        CLOUDY    31  24  75 SW8       30.09F WCI  23
$$

WIZ032>034-041-042-053>061-062200-
SOUTHWEST WISCONSIN

CITY           SKY/WX    TMP DP  RH WIND       PRES   REMARKS
LA CROSSE      SUNNY     32  24  72 SW16      30.09F WCI  21
SPARTA         SUNNY     35  24  63 S7        30.08F WCI  29
VIROQUA        SUNNY     32  25  74 SW12      30.07F WCI  23
BOSCOBEL       SUNNY     36  25  64 SW10      30.12F WCI  28
PRAIRIE DU CHI MOSUNNY   33  25  72 SW8       30.12F WCI  25
PLATTEVILLE    CLOUDY    32  29  88 SW8       30.13S WCI  25
$$

WIZ056-057-062-063-064-067-068-062200-
SOUTH CENTRAL WISCONSIN

CITY           SKY/WX    TMP DP  RH WIND       PRES   REMARKS
REEDSBURG      CLOUDY    33  25  72 SW10      30.09S WCI  25
BARABOO/DELLS  CLOUDY    33  24  69 SW9       30.09S WCI  25
LONE ROCK      SUNNY     34  25  69 SW7       30.12F WCI  28
MINERAL POINT  CLOUDY    32  28  86 SW9       30.11S WCI  24
MADISON        PTSUNNY   32  25  75 SW8       30.11F WCI  25
MIDDLETON      PTSUNNY   35  26  72 SW13      30.11F WCI  26
WATERTOWN      CLOUDY    32  28  84 SW10      30.12S WCI  24
MONROE         PTSUNNY   34  30  86 W10       30.12F WCI  26
JANESVILLE     MOSUNNY   36  28  75 W7        30.13F WCI  30
$$

WIZ051-052-058>065-066-070>072-062200-
SOUTHEAST WISCONSIN

CITY           SKY/WX    TMP DP  RH WIND       PRES   REMARKS
MILWAUKEE      CLOUDY    33  26  75 W14G22    30.13F WCI  23
WAUKESHA       CLOUDY    30  25  80 SW15      30.13F WCI  19
MILWAUKEE/TIMM CLOUDY    34  25  69 SW14      30.13F WCI  24
RACINE         CLOUDY    34  26  72 W12       30.15F WCI  25
BURLINGTON     SUNNY     34  26  74 W7        30.14S WCI  28
KENOSHA        MOSUNNY   36  28  73 W12       30.14F WCI  28
FOND DU LAC    CLOUDY    32  24  72 SW12      30.09F WCI  23
SHEBOYGAN      CLOUDY    31  24  75 W13       30.10F WCI  21
WEST BEND      CLOUDY    32  27  80 SW8       30.10S WCI  25
JUNEAU         CLOUDY    31  25  78 SW12      30.12S WCI  22
$$

LSZ147-162-062200-
LAKE SUPERIOR

STATION/POSITION TIME  TEMP    WIND        PRES    WAVE
                       AIR SEA DIR/SP/G            HT/PER
                 (UTC) (F)     (DEG/KT/KT) (MB)    (FT/S)
DEVILS ISLAND    2100   32     160/  6/  8 1012.5F
SAXON HARBOR     2000   36                 1012.5
$$

LMZ867-665-643>646-062200-
LAKE MICHIGAN

STATION/POSITION TIME  TEMP    WIND        PRES    WAVE
                       AIR SEA DIR/SP/G            HT/PER
                 (UTC) (F)     (DEG/KT/KT) (MB)    (FT/S)
CHAMBERS ISLAND  2000   29     230/  5/ 13 1017.9F
ALGOMA LAKESHORE 2011          250/ 12/ 16   N/A
KEWAUNEE LAKESHO 2000   30     260/  9/ 15 1018.0F
SHEBOYGAN LAKESH 2100   32     230/ 10/ 12 1020.6F
PORT WASHINGTON  2040   34     250/ 10/ 14 1020.7F
MILWAUKEE LAKESH 2010   33     270/ 11/ 13   N/A
KENOSHA   LAKESH 2100   37     250/ 13/ 16 1020.7F
$$

TC  - TEMPERATURE IN CELSIUS
VSB - VISIBILITY IN STATUTE MILES
WCI - WIND CHILL INDEX
HX  - HEAT INDEX




USA.gov is the U.S. government's official web portal to all federal, state and local government web resources and services.